Year,Month,Day,Hour,Minute,Value (Times are PST for temperature in C)
2019,03,29,00,00,7.10
2019,03,29,00,01,7.10
2019,03,29,00,02,7.10
2019,03,29,00,03,7.10
2019,03,29,00,04,7.00
2019,03,29,00,05,7.00
2019,03,29,00,06,7.00
2019,03,29,00,07,7.00
2019,03,29,00,08,7.00
2019,03,29,00,09,7.00
2019,03,29,00,10,6.90
2019,03,29,00,11,6.90
2019,03,29,00,12,6.90
2019,03,29,00,13,6.90
2019,03,29,00,14,6.90
2019,03,29,00,15,6.90
2019,03,29,00,16,6.80
2019,03,29,00,17,6.80
2019,03,29,00,18,6.80
2019,03,29,00,19,6.80
2019,03,29,00,20,6.80
2019,03,29,00,21,6.80
2019,03,29,00,22,6.70
2019,03,29,00,23,6.70
2019,03,29,00,24,6.70
2019,03,29,00,25,6.70
2019,03,29,00,26,6.60
2019,03,29,00,27,6.60
2019,03,29,00,28,6.60
2019,03,29,00,29,6.60
2019,03,29,00,30,6.60
2019,03,29,00,31,6.50
2019,03,29,00,32,6.50
2019,03,29,00,33,6.50
2019,03,29,00,34,6.40
2019,03,29,00,35,6.40
2019,03,29,00,36,6.40
2019,03,29,00,37,6.40
2019,03,29,00,38,6.40
2019,03,29,00,39,6.40
2019,03,29,00,40,6.40
2019,03,29,00,41,6.30
2019,03,29,00,42,6.30
2019,03,29,00,43,6.30
2019,03,29,00,44,6.30
2019,03,29,00,45,6.30
2019,03,29,00,46,6.30
2019,03,29,00,47,6.30
2019,03,29,00,48,6.30
2019,03,29,00,49,6.30
2019,03,29,00,50,6.20
2019,03,29,00,51,6.20
2019,03,29,00,52,6.20
2019,03,29,00,53,6.20
2019,03,29,00,54,6.20
2019,03,29,00,55,6.20
2019,03,29,00,56,6.20
2019,03,29,00,57,6.20
2019,03,29,00,58,6.20
2019,03,29,00,59,6.20
2019,03,29,01,00,6.20
2019,03,29,01,01,6.20
2019,03,29,01,02,6.20
2019,03,29,01,03,6.10
2019,03,29,01,04,6.10
2019,03,29,01,05,6.10
2019,03,29,01,06,6.10
2019,03,29,01,07,6.10
2019,03,29,01,08,6.10
2019,03,29,01,09,6.10
2019,03,29,01,10,6.10
2019,03,29,01,11,6.10
2019,03,29,01,12,6.00
2019,03,29,01,13,6.00
2019,03,29,01,14,6.00
2019,03,29,01,15,6.00
2019,03,29,01,16,6.00
2019,03,29,01,17,6.00
2019,03,29,01,18,6.00
2019,03,29,01,19,5.90
2019,03,29,01,20,5.90
2019,03,29,01,21,5.90
2019,03,29,01,22,5.90
2019,03,29,01,23,5.90
2019,03,29,01,24,5.90
2019,03,29,01,25,5.80
2019,03,29,01,26,5.80
2019,03,29,01,27,5.80
2019,03,29,01,28,5.80
2019,03,29,01,29,5.80
2019,03,29,01,30,5.80
2019,03,29,01,31,5.70
2019,03,29,01,32,5.70
2019,03,29,01,33,5.70
2019,03,29,01,34,5.70
2019,03,29,01,35,5.70
2019,03,29,01,36,5.70
2019,03,29,01,37,5.70
2019,03,29,01,38,5.70
2019,03,29,01,39,5.60
2019,03,29,01,40,5.60
2019,03,29,01,41,5.60
2019,03,29,01,42,5.60
2019,03,29,01,43,5.60
2019,03,29,01,44,5.60
2019,03,29,01,45,5.50
2019,03,29,01,46,5.50
2019,03,29,01,47,5.40
2019,03,29,01,48,5.40
2019,03,29,01,49,5.40
2019,03,29,01,50,5.40
2019,03,29,01,51,5.30
2019,03,29,01,52,5.30
2019,03,29,01,53,5.30
2019,03,29,01,54,5.30
2019,03,29,01,55,5.30
2019,03,29,01,56,5.30
2019,03,29,01,57,5.30
2019,03,29,01,58,5.30
2019,03,29,01,59,5.30
2019,03,29,02,00,5.20
2019,03,29,02,01,5.20
2019,03,29,02,02,5.20
2019,03,29,02,03,5.20
2019,03,29,02,04,5.20
2019,03,29,02,05,5.20
2019,03,29,02,06,5.10
2019,03,29,02,07,5.10
2019,03,29,02,08,5.10
2019,03,29,02,09,5.10
2019,03,29,02,10,5.10
2019,03,29,02,11,5.10
2019,03,29,02,12,5.00
2019,03,29,02,13,5.10
2019,03,29,02,14,5.10
2019,03,29,02,15,5.00
2019,03,29,02,16,5.00
2019,03,29,02,17,5.00
2019,03,29,02,18,5.00
2019,03,29,02,19,5.00
2019,03,29,02,20,5.00
2019,03,29,02,21,4.90
2019,03,29,02,22,4.90
2019,03,29,02,23,4.90
2019,03,29,02,24,4.90
2019,03,29,02,25,4.90
2019,03,29,02,26,4.90
2019,03,29,02,27,4.90
2019,03,29,02,28,4.90
2019,03,29,02,29,4.90
2019,03,29,02,30,4.90
2019,03,29,02,31,4.90
2019,03,29,02,32,4.90
2019,03,29,02,33,4.90
2019,03,29,02,34,4.90
2019,03,29,02,35,4.90
2019,03,29,02,36,4.90
2019,03,29,02,37,4.90
2019,03,29,02,38,4.90
2019,03,29,02,39,4.90
2019,03,29,02,40,4.90
2019,03,29,02,41,4.90
2019,03,29,02,42,4.90
2019,03,29,02,43,4.90
2019,03,29,02,44,4.90
2019,03,29,02,45,4.80
2019,03,29,02,46,4.80
2019,03,29,02,47,4.80
2019,03,29,02,48,4.80
2019,03,29,02,49,4.80
2019,03,29,02,50,4.80
2019,03,29,02,51,4.80
2019,03,29,02,52,4.80
2019,03,29,02,53,4.80
2019,03,29,02,54,4.80
2019,03,29,02,55,4.80
2019,03,29,02,56,4.80
2019,03,29,02,57,4.80
2019,03,29,02,58,4.80
2019,03,29,02,59,4.80
2019,03,29,03,00,4.80
2019,03,29,03,01,4.80
2019,03,29,03,02,4.80
2019,03,29,03,03,4.80
2019,03,29,03,04,4.70
2019,03,29,03,05,4.70
2019,03,29,03,06,4.70
2019,03,29,03,07,4.70
2019,03,29,03,08,4.70
2019,03,29,03,09,4.70
2019,03,29,03,10,4.70
2019,03,29,03,11,4.60
2019,03,29,03,12,4.60
2019,03,29,03,13,4.60
2019,03,29,03,14,4.60
2019,03,29,03,15,4.60
2019,03,29,03,16,4.60
2019,03,29,03,17,4.50
2019,03,29,03,18,4.50
2019,03,29,03,19,4.50
2019,03,29,03,20,4.40
2019,03,29,03,21,4.40
2019,03,29,03,22,4.40
2019,03,29,03,23,4.40
2019,03,29,03,24,4.40
2019,03,29,03,25,4.40
2019,03,29,03,26,4.30
2019,03,29,03,27,4.30
2019,03,29,03,28,4.30
2019,03,29,03,29,4.30
2019,03,29,03,30,4.30
2019,03,29,03,31,4.30
2019,03,29,03,32,4.30
2019,03,29,03,33,4.20
2019,03,29,03,34,4.20
2019,03,29,03,35,4.20
2019,03,29,03,36,4.20
2019,03,29,03,37,4.20
2019,03,29,03,38,4.20
2019,03,29,03,39,4.20
2019,03,29,03,40,4.20
2019,03,29,03,41,4.20
2019,03,29,03,42,4.20
2019,03,29,03,43,4.20
2019,03,29,03,44,4.10
2019,03,29,03,45,4.10
2019,03,29,03,46,4.10
2019,03,29,03,47,4.10
2019,03,29,03,48,4.10
2019,03,29,03,49,4.10
2019,03,29,03,50,4.10
2019,03,29,03,51,4.10
2019,03,29,03,52,4.00
2019,03,29,03,53,4.00
2019,03,29,03,54,4.00
2019,03,29,03,55,4.00
2019,03,29,03,56,4.00
2019,03,29,03,57,4.00
2019,03,29,03,58,4.00
2019,03,29,03,59,4.00
2019,03,29,04,00,3.90
2019,03,29,04,01,4.00
2019,03,29,04,02,4.00
2019,03,29,04,03,4.00
2019,03,29,04,04,4.00
2019,03,29,04,05,4.00
2019,03,29,04,06,4.00
2019,03,29,04,07,4.00
2019,03,29,04,08,3.90
2019,03,29,04,09,3.90
2019,03,29,04,10,3.90
2019,03,29,04,11,3.90
2019,03,29,04,12,3.90
2019,03,29,04,13,3.90
2019,03,29,04,14,3.90
2019,03,29,04,15,3.90
2019,03,29,04,16,3.80
2019,03,29,04,17,3.80
2019,03,29,04,18,3.80
2019,03,29,04,19,3.80
2019,03,29,04,20,3.80
2019,03,29,04,21,3.80
2019,03,29,04,22,3.80
2019,03,29,04,23,3.80
2019,03,29,04,24,3.80
2019,03,29,04,25,3.80
2019,03,29,04,26,3.80
2019,03,29,04,27,3.80
2019,03,29,04,28,3.80
2019,03,29,04,29,3.70
2019,03,29,04,30,3.70
2019,03,29,04,31,3.70
2019,03,29,04,32,3.70
2019,03,29,04,33,3.70
2019,03,29,04,34,3.70
2019,03,29,04,35,3.70
2019,03,29,04,36,3.70
2019,03,29,04,37,3.70
2019,03,29,04,38,3.70
2019,03,29,04,39,3.70
2019,03,29,04,40,3.70
2019,03,29,04,41,3.70
2019,03,29,04,42,3.70
2019,03,29,04,43,3.70
2019,03,29,04,44,3.70
2019,03,29,04,45,3.70
2019,03,29,04,46,3.70
2019,03,29,04,47,3.70
2019,03,29,04,48,3.70
2019,03,29,04,49,3.70
2019,03,29,04,50,3.70
2019,03,29,04,51,3.70
2019,03,29,04,52,3.70
2019,03,29,04,53,3.70
2019,03,29,04,54,3.70
2019,03,29,04,55,3.70
2019,03,29,04,56,3.70
2019,03,29,04,57,3.70
2019,03,29,04,58,3.70
2019,03,29,04,59,3.60
2019,03,29,05,00,3.60
2019,03,29,05,01,3.60
2019,03,29,05,02,3.60
2019,03,29,05,03,3.60
2019,03,29,05,04,3.60
2019,03,29,05,05,3.60
2019,03,29,05,06,3.60
2019,03,29,05,07,3.60
2019,03,29,05,08,3.60
2019,03,29,05,09,3.60
2019,03,29,05,10,3.60
2019,03,29,05,11,3.50
2019,03,29,05,12,3.50
2019,03,29,05,13,3.50
2019,03,29,05,14,3.50
2019,03,29,05,15,3.50
2019,03,29,05,16,3.40
2019,03,29,05,17,3.40
2019,03,29,05,18,3.40
2019,03,29,05,19,3.40
2019,03,29,05,20,3.40
2019,03,29,05,21,3.40
2019,03,29,05,22,3.30
2019,03,29,05,23,3.30
2019,03,29,05,24,3.30
2019,03,29,05,25,3.30
2019,03,29,05,26,3.30
2019,03,29,05,27,3.30
2019,03,29,05,28,3.20
2019,03,29,05,29,3.20
2019,03,29,05,30,3.20
2019,03,29,05,31,3.20
2019,03,29,05,32,3.20
2019,03,29,05,33,3.20
2019,03,29,05,34,3.20
2019,03,29,05,35,3.10
2019,03,29,05,36,3.20
2019,03,29,05,37,3.10
2019,03,29,05,38,3.10
2019,03,29,05,39,3.20
2019,03,29,05,40,3.20
2019,03,29,05,41,3.20
2019,03,29,05,42,3.20
2019,03,29,05,43,3.20
2019,03,29,05,44,3.20
2019,03,29,05,45,3.20
2019,03,29,05,46,3.20
2019,03,29,05,47,3.10
2019,03,29,05,48,3.10
2019,03,29,05,49,3.10
2019,03,29,05,50,3.10
2019,03,29,05,51,3.10
2019,03,29,05,52,3.10
2019,03,29,05,53,3.10
2019,03,29,05,54,3.10
2019,03,29,05,55,3.10
2019,03,29,05,56,3.10
2019,03,29,05,57,3.10
2019,03,29,05,58,3.10
2019,03,29,05,59,3.10
2019,03,29,06,00,3.10
2019,03,29,06,01,3.10
2019,03,29,06,02,3.10
2019,03,29,06,03,3.20
2019,03,29,06,04,3.20
2019,03,29,06,05,3.20
2019,03,29,06,06,3.20
2019,03,29,06,07,3.20
2019,03,29,06,08,3.20
2019,03,29,06,09,3.20
2019,03,29,06,10,3.10
2019,03,29,06,11,3.10
2019,03,29,06,12,3.10
2019,03,29,06,13,3.10
2019,03,29,06,14,3.10
2019,03,29,06,15,3.10
2019,03,29,06,16,3.10
2019,03,29,06,17,3.10
2019,03,29,06,18,3.10
2019,03,29,06,19,3.10
2019,03,29,06,20,3.10
2019,03,29,06,21,3.10
2019,03,29,06,22,3.10
2019,03,29,06,23,3.00
2019,03,29,06,24,3.00
2019,03,29,06,25,3.00
2019,03,29,06,26,3.00
2019,03,29,06,27,3.00
2019,03,29,06,28,2.90
2019,03,29,06,29,2.90
2019,03,29,06,30,2.90
2019,03,29,06,31,2.90
2019,03,29,06,32,2.90
2019,03,29,06,33,2.90
2019,03,29,06,34,2.90
2019,03,29,06,35,2.90
2019,03,29,06,36,2.90
2019,03,29,06,37,2.90
2019,03,29,06,38,2.90
2019,03,29,06,39,2.90
2019,03,29,06,40,2.90
2019,03,29,06,41,3.00
2019,03,29,06,42,3.00
2019,03,29,06,43,2.90
2019,03,29,06,44,2.90
2019,03,29,06,45,2.90
2019,03,29,06,46,2.90
2019,03,29,06,47,2.90
2019,03,29,06,48,2.90
2019,03,29,06,49,2.90
2019,03,29,06,50,2.90
2019,03,29,06,51,2.90
2019,03,29,06,52,2.90
2019,03,29,06,53,2.90
2019,03,29,06,54,3.00
2019,03,29,06,55,2.90
2019,03,29,06,56,2.90
2019,03,29,06,57,2.90
2019,03,29,06,58,2.90
2019,03,29,06,59,2.90
2019,03,29,07,00,2.90
2019,03,29,07,01,2.90
2019,03,29,07,02,2.90
2019,03,29,07,03,2.90
2019,03,29,07,04,2.90
2019,03,29,07,05,2.90
2019,03,29,07,06,2.90
2019,03,29,07,07,2.90
2019,03,29,07,08,2.90
2019,03,29,07,09,2.90
2019,03,29,07,10,2.90
2019,03,29,07,11,2.80
2019,03,29,07,12,2.80
2019,03,29,07,13,2.80
2019,03,29,07,14,2.80
2019,03,29,07,15,2.80
2019,03,29,07,16,2.80
2019,03,29,07,17,2.80
2019,03,29,07,18,2.80
2019,03,29,07,19,2.80
2019,03,29,07,20,2.80
2019,03,29,07,21,2.80
2019,03,29,07,22,2.80
2019,03,29,07,23,2.80
2019,03,29,07,24,2.80
2019,03,29,07,25,2.80
2019,03,29,07,26,2.80
2019,03,29,07,27,2.70
2019,03,29,07,28,2.70
2019,03,29,07,29,2.70
2019,03,29,07,30,2.80
2019,03,29,07,31,2.80
2019,03,29,07,32,2.80
2019,03,29,07,33,2.80
2019,03,29,07,34,2.80
2019,03,29,07,35,2.80
2019,03,29,07,36,2.80
2019,03,29,07,37,2.80
2019,03,29,07,38,2.80
2019,03,29,07,39,2.80
2019,03,29,07,40,2.80
2019,03,29,07,41,2.80
2019,03,29,07,42,2.80
2019,03,29,07,43,2.80
2019,03,29,07,44,2.80
2019,03,29,07,45,2.80
2019,03,29,07,46,2.80
2019,03,29,07,47,2.80
2019,03,29,07,48,2.80
2019,03,29,07,49,2.80
2019,03,29,07,50,2.80
2019,03,29,07,51,2.90
2019,03,29,07,52,2.90
2019,03,29,07,53,2.90
2019,03,29,07,54,2.90
2019,03,29,07,55,2.90
2019,03,29,07,56,2.90
2019,03,29,07,57,2.90
2019,03,29,07,58,2.90
2019,03,29,07,59,2.90
2019,03,29,08,00,2.90
2019,03,29,08,01,3.00
2019,03,29,08,02,3.00
2019,03,29,08,03,3.00
2019,03,29,08,04,3.00
2019,03,29,08,05,3.10
2019,03,29,08,06,3.10
2019,03,29,08,07,3.10
2019,03,29,08,08,3.10
2019,03,29,08,09,3.10
2019,03,29,08,10,3.10
2019,03,29,08,11,3.10
2019,03,29,08,12,3.10
2019,03,29,08,13,3.20
2019,03,29,08,14,3.20
2019,03,29,08,15,3.20
2019,03,29,08,16,3.20
2019,03,29,08,17,3.20
2019,03,29,08,18,3.30
2019,03,29,08,19,3.30
2019,03,29,08,20,3.30
2019,03,29,08,21,3.30
2019,03,29,08,22,3.30
2019,03,29,08,23,3.30
2019,03,29,08,24,3.30
2019,03,29,08,25,3.30
2019,03,29,08,26,3.30
2019,03,29,08,27,3.30
2019,03,29,08,28,3.30
2019,03,29,08,29,3.30
2019,03,29,08,30,3.40
2019,03,29,08,31,3.40
2019,03,29,08,32,3.40
2019,03,29,08,33,3.40
2019,03,29,08,34,3.40
2019,03,29,08,35,3.40
2019,03,29,08,36,3.40
2019,03,29,08,37,3.40
2019,03,29,08,38,3.40
2019,03,29,08,39,3.40
2019,03,29,08,40,3.50
2019,03,29,08,41,3.50
2019,03,29,08,42,3.50
2019,03,29,08,43,3.50
2019,03,29,08,44,3.60
2019,03,29,08,45,3.60
2019,03,29,08,46,3.60
2019,03,29,08,47,3.60
2019,03,29,08,48,3.60
2019,03,29,08,49,3.60
2019,03,29,08,50,3.60
2019,03,29,08,51,3.60
2019,03,29,08,52,3.70
2019,03,29,08,53,3.70
2019,03,29,08,54,3.70
2019,03,29,08,55,3.70
2019,03,29,08,56,3.70
2019,03,29,08,57,3.70
2019,03,29,08,58,3.70
2019,03,29,08,59,3.70
2019,03,29,09,00,3.70
2019,03,29,09,01,3.70
2019,03,29,09,02,3.80
2019,03,29,09,03,3.80
2019,03,29,09,04,3.80
2019,03,29,09,05,3.80
2019,03,29,09,06,3.80
2019,03,29,09,07,3.80
2019,03,29,09,08,3.80
2019,03,29,09,09,3.90
2019,03,29,09,10,3.90
2019,03,29,09,11,3.90
2019,03,29,09,12,3.90
2019,03,29,09,13,3.90
2019,03,29,09,14,3.90
2019,03,29,09,15,3.90
2019,03,29,09,16,3.90
2019,03,29,09,17,3.90
2019,03,29,09,18,3.90
2019,03,29,09,19,3.90
2019,03,29,09,21,3.90
2019,03,29,09,22,3.90
2019,03,29,09,23,3.90
2019,03,29,09,24,3.90
2019,03,29,09,25,3.90
2019,03,29,09,26,3.90
2019,03,29,09,27,3.90
2019,03,29,09,28,3.90
2019,03,29,09,29,4.00
2019,03,29,09,30,4.00
2019,03,29,09,31,4.00
2019,03,29,09,32,4.10
2019,03,29,09,33,4.10
2019,03,29,09,34,4.10
2019,03,29,09,35,4.20
2019,03,29,09,36,4.20
2019,03,29,09,37,4.20
2019,03,29,09,38,4.30
2019,03,29,09,39,4.30
2019,03,29,09,40,4.40
2019,03,29,09,41,4.50
2019,03,29,09,42,4.60
2019,03,29,09,43,4.70
2019,03,29,09,44,4.70
2019,03,29,09,45,4.70
2019,03,29,09,46,4.70
2019,03,29,09,47,4.80
2019,03,29,09,48,4.80
2019,03,29,09,49,4.80
2019,03,29,09,50,4.90
2019,03,29,09,51,4.90
2019,03,29,09,52,5.10
2019,03,29,09,54,5.20
2019,03,29,09,55,5.20
2019,03,29,09,56,5.30
2019,03,29,09,57,5.30
2019,03,29,09,58,5.30
2019,03,29,09,59,5.30
2019,03,29,10,00,5.30
2019,03,29,10,01,5.40
2019,03,29,10,02,5.40
2019,03,29,10,03,5.50
2019,03,29,10,04,5.60
2019,03,29,10,05,5.70
2019,03,29,10,06,5.70
2019,03,29,10,07,5.80
2019,03,29,10,08,5.90
2019,03,29,10,09,6.00
2019,03,29,10,10,6.10
2019,03,29,10,11,6.10
2019,03,29,10,12,6.20
2019,03,29,10,13,6.20
2019,03,29,10,14,6.30
2019,03,29,10,15,6.40
2019,03,29,10,16,6.40
2019,03,29,10,17,6.50
2019,03,29,10,18,6.60
2019,03,29,10,19,6.70
2019,03,29,10,20,6.70
2019,03,29,10,21,6.80
2019,03,29,10,22,6.90
2019,03,29,10,23,6.90
2019,03,29,10,24,7.00
2019,03,29,10,25,7.10
2019,03,29,10,26,7.20
2019,03,29,10,27,7.30
2019,03,29,10,28,7.30
2019,03,29,10,29,7.50
2019,03,29,10,30,7.60
2019,03,29,10,31,7.70
2019,03,29,10,32,7.80
2019,03,29,10,33,7.90
2019,03,29,10,34,8.10
2019,03,29,10,35,8.10
2019,03,29,10,36,8.20
2019,03,29,10,37,8.30
2019,03,29,10,38,8.40
2019,03,29,10,39,8.40
2019,03,29,10,40,8.40
2019,03,29,10,41,8.50
2019,03,29,10,42,8.50
2019,03,29,10,43,8.60
2019,03,29,10,44,8.60
2019,03,29,10,45,8.70
2019,03,29,10,46,8.80
2019,03,29,10,47,8.90
2019,03,29,10,48,9.00
2019,03,29,10,49,9.10
2019,03,29,10,50,9.10
2019,03,29,10,51,9.20
2019,03,29,10,52,9.30
2019,03,29,10,53,9.30
2019,03,29,10,54,9.40
2019,03,29,10,55,9.50
2019,03,29,10,56,9.60
2019,03,29,10,57,9.70
2019,03,29,10,58,9.70
2019,03,29,10,59,9.70
2019,03,29,11,00,9.70
2019,03,29,11,01,9.80
2019,03,29,11,02,9.80
2019,03,29,11,03,9.80
2019,03,29,11,04,9.90
2019,03,29,11,05,10.00
2019,03,29,11,06,10.10
2019,03,29,11,07,10.10
2019,03,29,11,08,10.20
2019,03,29,11,09,10.30
2019,03,29,11,10,10.30
2019,03,29,11,11,10.40
2019,03,29,11,12,10.50
2019,03,29,11,13,10.60
2019,03,29,11,14,10.60
2019,03,29,11,15,10.70
2019,03,29,11,16,10.70
2019,03,29,11,17,10.80
2019,03,29,11,18,10.80
2019,03,29,11,19,10.80
2019,03,29,11,20,10.80
2019,03,29,11,21,10.90
2019,03,29,11,22,10.90
2019,03,29,11,23,11.10
2019,03,29,11,24,11.10
2019,03,29,11,25,11.20
2019,03,29,11,26,11.20
2019,03,29,11,27,11.30
2019,03,29,11,28,11.30
2019,03,29,11,29,11.40
2019,03,29,11,30,11.40
2019,03,29,11,31,11.50
2019,03,29,11,32,11.60
2019,03,29,11,33,11.70
2019,03,29,11,34,11.70
2019,03,29,11,35,11.70
2019,03,29,11,36,11.70
2019,03,29,11,37,11.80
2019,03,29,11,38,11.80
2019,03,29,11,39,11.90
2019,03,29,11,40,11.90
2019,03,29,11,41,11.90
2019,03,29,11,42,11.90
2019,03,29,11,43,12.00
2019,03,29,11,44,12.10
2019,03,29,11,45,12.10
2019,03,29,11,46,12.20
2019,03,29,11,47,12.20
2019,03,29,11,48,12.20
2019,03,29,11,49,12.20
2019,03,29,11,50,12.20
2019,03,29,11,51,12.20
2019,03,29,11,52,12.30
2019,03,29,11,53,12.30
2019,03,29,11,54,12.40
2019,03,29,11,55,12.50
2019,03,29,11,56,12.60
2019,03,29,11,57,12.70
2019,03,29,11,58,12.80
2019,03,29,11,59,12.90
2019,03,29,12,00,13.10
2019,03,29,12,01,13.20
2019,03,29,12,02,13.20
2019,03,29,12,03,13.30
2019,03,29,12,04,13.40
2019,03,29,12,05,13.40
2019,03,29,12,06,13.40
2019,03,29,12,07,13.40
2019,03,29,12,08,13.40
2019,03,29,12,09,13.40
2019,03,29,12,10,13.50
2019,03,29,12,11,13.60
2019,03,29,12,12,13.70
2019,03,29,12,13,13.70
2019,03,29,12,14,13.80
2019,03,29,12,15,13.90
2019,03,29,12,16,14.00
2019,03,29,12,17,14.10
2019,03,29,12,18,14.10
2019,03,29,12,19,14.10
2019,03,29,12,20,14.10
2019,03,29,12,21,14.10
2019,03,29,12,22,14.10
2019,03,29,12,23,14.10
2019,03,29,12,24,14.20
2019,03,29,12,25,14.20
2019,03,29,12,26,14.30
2019,03,29,12,27,14.30
2019,03,29,12,28,14.40
2019,03,29,12,29,14.50
2019,03,29,12,30,14.60
2019,03,29,12,31,14.70
2019,03,29,12,32,14.70
2019,03,29,12,33,14.80
2019,03,29,12,34,14.80
2019,03,29,12,35,14.90
2019,03,29,12,36,15.00
2019,03,29,12,37,15.10
2019,03,29,12,38,15.20
2019,03,29,12,39,15.30
2019,03,29,12,40,15.30
2019,03,29,12,41,15.40
2019,03,29,12,42,15.60
2019,03,29,12,43,15.60
2019,03,29,12,44,15.70
2019,03,29,12,45,15.70
2019,03,29,12,46,15.70
2019,03,29,12,47,15.80
2019,03,29,12,48,15.80
2019,03,29,12,49,15.90
2019,03,29,12,50,15.90
2019,03,29,12,51,16.00
2019,03,29,12,52,16.10
2019,03,29,12,53,16.10
2019,03,29,12,54,16.20
2019,03,29,12,55,16.20
2019,03,29,12,56,16.20
2019,03,29,12,57,16.20
2019,03,29,12,58,16.30
2019,03,29,12,59,16.30
2019,03,29,13,00,16.30
2019,03,29,13,01,16.20
2019,03,29,13,02,16.10
2019,03,29,13,03,16.00
2019,03,29,13,04,16.00
2019,03,29,13,05,16.10
2019,03,29,13,06,16.20
2019,03,29,13,07,16.20
2019,03,29,13,08,16.30
2019,03,29,13,09,16.30
2019,03,29,13,10,16.40
2019,03,29,13,11,16.40
2019,03,29,13,12,16.50
2019,03,29,13,13,16.60
2019,03,29,13,14,16.60
2019,03,29,13,15,16.70
2019,03,29,13,16,16.70
2019,03,29,13,17,16.70
2019,03,29,13,18,16.70
2019,03,29,13,19,16.70
2019,03,29,13,20,16.80
2019,03,29,13,21,16.80
2019,03,29,13,22,16.80
2019,03,29,13,23,16.90
2019,03,29,13,24,17.00
2019,03,29,13,25,17.10
2019,03,29,13,26,17.10
2019,03,29,13,27,17.20
2019,03,29,13,28,17.30
2019,03,29,13,29,17.30
2019,03,29,13,30,17.40
2019,03,29,13,31,17.40
2019,03,29,13,32,17.40
2019,03,29,13,33,17.50
2019,03,29,13,34,17.60
2019,03,29,13,35,17.70
2019,03,29,13,36,17.70
2019,03,29,13,37,17.80
2019,03,29,13,38,17.80
2019,03,29,13,39,17.90
2019,03,29,13,40,18.10
2019,03,29,13,41,18.10
2019,03,29,13,42,18.10
2019,03,29,13,43,18.20
2019,03,29,13,44,18.20
2019,03,29,13,45,18.30
2019,03,29,13,46,18.30
2019,03,29,13,47,18.40
2019,03,29,13,48,18.40
2019,03,29,13,49,18.60
2019,03,29,13,50,18.60
2019,03,29,13,51,18.70
2019,03,29,13,52,18.80
2019,03,29,13,53,18.90
2019,03,29,13,54,18.90
2019,03,29,13,55,18.90
2019,03,29,13,56,19.00
2019,03,29,13,57,19.00
2019,03,29,13,58,19.10
2019,03,29,13,59,19.10
2019,03,29,14,00,19.10
2019,03,29,14,01,19.10
2019,03,29,14,02,19.20
2019,03,29,14,03,19.20
2019,03,29,14,04,19.30
2019,03,29,14,05,19.20
2019,03,29,14,06,19.20
2019,03,29,14,07,19.20
2019,03,29,14,08,19.30
2019,03,29,14,09,19.30
2019,03,29,14,10,19.30
2019,03,29,14,11,19.40
2019,03,29,14,12,19.50
2019,03,29,14,13,19.60
2019,03,29,14,14,19.60
2019,03,29,14,15,19.70
2019,03,29,14,16,19.60
2019,03,29,14,17,19.60
2019,03,29,14,18,19.70
2019,03,29,14,19,19.70
2019,03,29,14,20,19.70
2019,03,29,14,21,19.80
2019,03,29,14,22,19.80
2019,03,29,14,23,19.80
2019,03,29,14,24,19.80
2019,03,29,14,25,19.80
2019,03,29,14,26,19.90
2019,03,29,14,27,19.90
2019,03,29,14,28,19.80
2019,03,29,14,29,19.80
2019,03,29,14,30,19.70
2019,03,29,14,31,19.60
2019,03,29,14,32,19.60
2019,03,29,14,33,19.60
2019,03,29,14,34,19.70
2019,03,29,14,35,19.70
2019,03,29,14,36,19.80
2019,03,29,14,37,19.80
2019,03,29,14,38,19.90
2019,03,29,14,39,19.90
2019,03,29,14,40,19.90
2019,03,29,14,41,20.00
2019,03,29,14,42,20.10
2019,03,29,14,43,20.10
2019,03,29,14,44,20.20
2019,03,29,14,45,20.20
2019,03,29,14,46,20.20
2019,03,29,14,47,20.20
2019,03,29,14,48,20.20
2019,03,29,14,49,20.20
2019,03,29,14,50,20.30
2019,03,29,14,51,20.40
2019,03,29,14,52,20.40
2019,03,29,14,53,20.60
2019,03,29,14,54,20.60
2019,03,29,14,55,20.70
2019,03,29,14,56,20.70
2019,03,29,14,57,20.70
2019,03,29,14,58,20.70
2019,03,29,14,59,20.70
2019,03,29,15,00,20.70
2019,03,29,15,01,20.70
2019,03,29,15,02,20.80
2019,03,29,15,03,20.80
2019,03,29,15,04,20.80
2019,03,29,15,05,20.90
2019,03,29,15,06,20.90
2019,03,29,15,07,20.80
2019,03,29,15,08,20.80
2019,03,29,15,09,20.70
2019,03,29,15,10,20.70
2019,03,29,15,11,20.60
2019,03,29,15,12,20.60
2019,03,29,15,13,20.60
2019,03,29,15,14,20.60
2019,03,29,15,15,20.60
2019,03,29,15,16,20.60
2019,03,29,15,17,20.40
2019,03,29,15,18,20.40
2019,03,29,15,19,20.40
2019,03,29,15,20,20.50
2019,03,29,15,21,20.60
2019,03,29,15,22,20.70
2019,03,29,15,23,20.70
2019,03,29,15,24,20.70
2019,03,29,15,25,20.70
2019,03,29,15,26,20.70
2019,03,29,15,27,20.60
2019,03,29,15,28,20.60
2019,03,29,15,29,20.60
2019,03,29,15,30,20.70
2019,03,29,15,31,20.70
2019,03,29,15,32,20.80
2019,03,29,15,33,20.90
2019,03,29,15,34,21.00
2019,03,29,15,35,21.10
2019,03,29,15,36,21.20
2019,03,29,15,37,21.20
2019,03,29,15,38,21.30
2019,03,29,15,39,21.40
2019,03,29,15,40,21.40
2019,03,29,15,41,21.60
2019,03,29,15,42,21.60
2019,03,29,15,43,21.70
2019,03,29,15,44,21.80
2019,03,29,15,45,21.80
2019,03,29,15,46,21.90
2019,03,29,15,47,21.90
2019,03,29,15,48,22.00
2019,03,29,15,49,22.00
2019,03,29,15,50,22.00
2019,03,29,15,51,22.10
2019,03,29,15,52,22.00
2019,03,29,15,53,22.00
2019,03,29,15,54,21.90
2019,03,29,15,55,21.90
2019,03,29,15,56,21.80
2019,03,29,15,57,21.80
2019,03,29,15,58,21.80
2019,03,29,15,59,21.70
2019,03,29,16,00,21.70
2019,03,29,16,01,21.60
2019,03,29,16,02,21.30
2019,03,29,16,03,21.10
2019,03,29,16,04,20.80
2019,03,29,16,05,20.70
2019,03,29,16,06,20.50
2019,03,29,16,07,20.40
2019,03,29,16,08,20.30
2019,03,29,16,09,20.30
2019,03,29,16,10,20.20
2019,03,29,16,11,20.10
2019,03,29,16,12,19.90
2019,03,29,16,13,19.80
2019,03,29,16,14,19.70
2019,03,29,16,15,19.70
2019,03,29,16,16,19.50
2019,03,29,16,17,19.40
2019,03,29,16,18,19.40
2019,03,29,16,19,19.40
2019,03,29,16,20,19.30
2019,03,29,16,21,19.30
2019,03,29,16,22,19.30
2019,03,29,16,23,19.30
2019,03,29,16,24,19.30
2019,03,29,16,25,19.20
2019,03,29,16,26,19.20
2019,03,29,16,27,19.20
2019,03,29,16,28,19.20
2019,03,29,16,29,19.10
2019,03,29,16,30,19.10
2019,03,29,16,31,19.10
2019,03,29,16,32,19.00
2019,03,29,16,33,18.90
2019,03,29,16,34,18.90
2019,03,29,16,35,18.80
2019,03,29,16,36,18.80
2019,03,29,16,37,18.80
2019,03,29,16,38,18.70
2019,03,29,16,39,18.70
2019,03,29,16,40,18.70
2019,03,29,16,41,18.60
2019,03,29,16,42,18.60
2019,03,29,16,43,18.70
2019,03,29,16,44,18.70
2019,03,29,16,45,18.70
2019,03,29,16,46,18.70
2019,03,29,16,47,18.60
2019,03,29,16,48,18.50
2019,03,29,16,49,18.40
2019,03,29,16,50,18.40
2019,03,29,16,51,18.40
2019,03,29,16,52,18.40
2019,03,29,16,53,18.40
2019,03,29,16,54,18.40
2019,03,29,16,55,18.50
2019,03,29,16,56,18.50
2019,03,29,16,57,18.50
2019,03,29,16,58,18.40
2019,03,29,16,59,18.40
2019,03,29,17,00,18.40
2019,03,29,17,01,18.40
2019,03,29,17,02,18.40
2019,03,29,17,03,18.40
2019,03,29,17,04,18.40
2019,03,29,17,05,18.40
2019,03,29,17,06,18.40
2019,03,29,17,07,18.40
2019,03,29,17,08,18.40
2019,03,29,17,09,18.40
2019,03,29,17,10,18.30
2019,03,29,17,11,18.30
2019,03,29,17,12,18.30
2019,03,29,17,13,18.30
2019,03,29,17,14,18.40
2019,03,29,17,15,18.40
2019,03,29,17,16,18.40
2019,03,29,17,17,18.40
2019,03,29,17,18,18.40
2019,03,29,17,19,18.40
2019,03,29,17,20,18.40
2019,03,29,17,21,18.50
2019,03,29,17,22,18.50
2019,03,29,17,23,18.40
2019,03,29,17,24,18.40
2019,03,29,17,25,18.30
2019,03,29,17,26,18.20
2019,03,29,17,27,18.10
2019,03,29,17,28,17.90
2019,03,29,17,29,17.90
2019,03,29,17,30,17.80
2019,03,29,17,31,17.80
2019,03,29,17,32,17.80
2019,03,29,17,33,17.70
2019,03,29,17,34,17.70
2019,03,29,17,35,17.70
2019,03,29,17,36,17.70
2019,03,29,17,37,17.70
2019,03,29,17,38,17.70
2019,03,29,17,39,17.70
2019,03,29,17,40,17.70
2019,03,29,17,41,17.70
2019,03,29,17,42,17.60
2019,03,29,17,43,17.60
2019,03,29,17,44,17.60
2019,03,29,17,45,17.60
2019,03,29,17,46,17.60
2019,03,29,17,47,17.60
2019,03,29,17,48,17.60
2019,03,29,17,49,17.60
2019,03,29,17,50,17.50